AALTO-1 (42775 NORAD) Tracking and Keplerian Element Data

This shows tracking and keplerian element data for the satellite.

Feedback or suggestion? Click here.




ElementValue
Catalog42775
NameAALTO-1
Epoch Orbit8255
Epoch Day352.77946276
Epoch Year2018
RAAN48.5949
Inclination97.3773
Eccentricity0.0015355
Argument of Perigee133.9428
Mean Anonmoly226.3077
Mean Motion15.21039455
Decay Rate5.84E-06
L11 42775U 17036L 18352.77946276 .00000584 00000-0 29315-4 0 9990
L22 42775 97.3773 48.5949 0015355 133.9428 226.3077 15.21039455 82553

Live tracking and technical data element details for AALTO-1 (NORAD 42775). AALTO-1 can be tracked NOW for your location showing map with azimuth and elevation plus other details from your city location.

Track the satellite on the map from your city or location and see movement details for azimuth, elevation, latitude, longitude, range, height, and movement on the map or in text.







IsCatalogInMostPopularTable: catalog: 42775, numindb: 155
Update: records affected: 1



GetName: 42775 AALTO-1

Hit Count: updated at: Wed, 19 Dec 2018 16:44:26 GMT